This is the latest recevied weather packets stored in our database for station/object OE6PLD-13. If no packets are shown the sender has not sent any weather packets the latest 10 day(s).
| Time | Temp. | Humidity | Pressure | Rain* | Wind** | Luminosity | Snow |
|---|---|---|---|---|---|---|---|
| 1777906132 | 28.33° C | 32% | 1011 hPa | 0.76 mm | - | 258 W/m² | - |
| 1777905949 | 28.33° C | 33% | 1011.2 hPa | 0.76 mm | - | 290 W/m² | - |
| 1777905765 | 28.33° C | 33% | 1011.1 hPa | 0.76 mm | - | 311 W/m² | - |
| 1777905582 | 27.78° C | 34% | 1011.1 hPa | 0.76 mm | - | 323 W/m² | - |
| 1777905399 | 27.78° C | 34% | 1011.3 hPa | 0.76 mm | - | 345 W/m² | - |
| 1777905215 | 27.78° C | 34% | 1011.5 hPa | 0.76 mm | - | 363 W/m² | - |
| 1777905032 | 27.22° C | 34% | 1011.3 hPa | 0.76 mm | - | 371 W/m² | - |
| 1777904848 | 27.78° C | 34% | 1011.4 hPa | 0.76 mm | - | 381 W/m² | - |
| 1777904665 | 27.78° C | 34% | 1011.1 hPa | 0.76 mm | - | 356 W/m² | - |
| 1777904482 | 27.78° C | 33% | 1011.6 hPa | 0.76 mm | - | 374 W/m² | - |
| 1777904299 | 27.78° C | 33% | 1011.6 hPa | 0.76 mm | - | 399 W/m² | - |
| 1777904115 | 27.78° C | 34% | 1011.9 hPa | 0.76 mm | - | 401 W/m² | - |
| 1777903932 | 27.78° C | 33% | 1011.6 hPa | 0.76 mm | - | 401 W/m² | - |
| 1777903748 | 27.78° C | 32% | 1011.8 hPa | 0.76 mm | - | 412 W/m² | - |
| 1777903565 | 27.78° C | 31% | 1011.6 hPa | 0.76 mm | - | 390 W/m² | - |
| 1777903382 | 28.33° C | 32% | 1011.7 hPa | 0.76 mm | - | 417 W/m² | - |
| 1777903199 | 28.89° C | 31% | 1011.9 hPa | 0.76 mm | - | 425 W/m² | - |
| 1777903015 | 28.33° C | 30% | 1011.9 hPa | 0.76 mm | - | 414 W/m² | - |
| 1777902832 | 28.33° C | 31% | 1011.9 hPa | 0.76 mm | - | 404 W/m² | - |
| 1777902648 | 27.78° C | 32% | 1011.8 hPa | 0.76 mm | - | 404 W/m² | - |
| 1777902465 | 27.78° C | 33% | 1011.9 hPa | 0.76 mm | - | 415 W/m² | - |
| 1777902282 | 27.22° C | 33% | 1011.9 hPa | 0.76 mm | - | 415 W/m² | - |
| 1777902098 | 26.67° C | 34% | 1012 hPa | 0.76 mm | - | 372 W/m² | - |
| 1777901915 | 26.67° C | 34% | 1012.1 hPa | 0.76 mm | - | 246 W/m² | - |
| 1777901732 | 26.67° C | 32% | 1012 hPa | 0.76 mm | - | 217 W/m² | - |
* Rain latest hour (hover to see other rain measurements)
** Current wind speed in m/s (hover to see current wind gust speed)